Stone Corral
DateTemperatureDew Point
08/31 - 01:00 PM92.1°55.5°
08/31 - 12:45 PM91.9°55.4°
08/31 - 12:30 PM91.3°55.4°
08/31 - 12:15 PM89.8°55.6°
08/31 - 12:00 PM89.6°55.1°
08/31 - 11:45 AM88.9°55.0°
08/31 - 11:30 AM87.7°54.9°
08/31 - 11:15 AM87.7°54.0°
08/31 - 11:00 AM86.2°52.7°
08/31 - 10:45 AM85.2°51.8°
08/31 - 10:30 AM84.0°52.4°
08/31 - 10:15 AM82.0°51.0°
08/31 - 10:00 AM80.4°52.8°
08/31 - 09:45 AM78.5°53.3°
08/31 - 09:30 AM76.2°54.0°
08/31 - 09:15 AM74.3°53.4°
08/31 - 09:00 AM72.6°53.7°
08/31 - 08:45 AM71.9°53.7°
08/31 - 08:30 AM70.8°53.2°
08/31 - 08:15 AM68.6°53.9°
08/31 - 08:00 AM65.8°53.5°
08/31 - 07:45 AM63.8°52.5°
08/31 - 07:30 AM62.2°51.8°
08/31 - 07:15 AM62.7°51.9°
08/31 - 07:00 AM63.9°51.2°
08/31 - 06:45 AM65.4°50.2°
08/31 - 06:30 AM65.7°47.7°
08/31 - 06:15 AM62.3°49.3°
08/31 - 06:00 AM61.6°49.9°
08/31 - 05:45 AM61.7°52.2°
08/31 - 05:30 AM62.2°51.8°
08/31 - 05:15 AM61.7°51.5°
08/31 - 05:00 AM62.1°52.0°
08/31 - 04:45 AM63.0°53.7°
08/31 - 04:30 AM63.8°52.6°
08/31 - 04:15 AM64.1°51.6°
08/31 - 04:00 AM65.0°52.1°
08/31 - 03:45 AM66.7°53.4°
08/31 - 03:30 AM67.3°52.0°
08/31 - 03:15 AM67.3°51.5°
08/31 - 03:00 AM66.6°52.5°
08/31 - 02:45 AM66.5°53.3°
08/31 - 02:30 AM66.3°54.0°
08/31 - 02:15 AM65.3°53.3°
08/31 - 02:00 AM65.6°52.8°
08/31 - 01:45 AM66.4°52.3°
08/31 - 01:30 AM67.0°51.5°
08/31 - 01:15 AM67.2°51.7°
08/31 - 01:00 AM67.3°52.3°
08/31 - 12:45 AM68.0°52.7°
08/31 - 12:30 AM69.0°53.4°
08/31 - 12:15 AM70.2°52.9°
08/31 - 12:00 AM71.9°54.4°
08/30 - 11:45 PM72.2°51.1°
08/30 - 11:30 PM72.1°50.6°
08/30 - 11:15 PM72.7°51.8°
08/30 - 11:00 PM74.1°54.5°
08/30 - 10:45 PM76.3°52.7°
08/30 - 10:30 PM76.5°50.9°
08/30 - 10:15 PM74.7°50.5°
08/30 - 10:00 PM74.7°51.3°
08/30 - 09:45 PM76.0°53.0°
08/30 - 09:30 PM77.6°53.9°
08/30 - 09:15 PM79.4°53.5°
08/30 - 09:00 PM80.4°51.6°
08/30 - 08:45 PM78.3°51.3°
08/30 - 08:30 PM78.0°51.9°
08/30 - 08:15 PM78.2°51.1°
08/30 - 08:00 PM79.3°52.9°
08/30 - 07:45 PM80.4°52.9°
08/30 - 07:30 PM82.0°53.4°
08/30 - 07:15 PM84.1°55.5°
08/30 - 07:00 PM86.0°56.2°
08/30 - 06:45 PM86.9°56.9°
08/30 - 06:30 PM88.0°57.2°
08/30 - 06:15 PM89.1°57.2°
08/30 - 06:00 PM90.1°56.9°
08/30 - 05:45 PM91.1°56.3°
08/30 - 05:30 PM91.7°56.1°
08/30 - 05:15 PM92.2°57.6°
08/30 - 05:00 PM92.5°57.3°
08/30 - 04:45 PM92.8°58.0°
08/30 - 04:30 PM93.0°58.8°
08/30 - 04:15 PM93.4°58.5°
08/30 - 04:00 PM93.9°59.2°
08/30 - 03:45 PM93.4°58.7°
08/30 - 03:30 PM93.5°58.0°
08/30 - 03:15 PM94.0°57.4°
08/30 - 03:00 PM93.7°56.4°
08/30 - 02:45 PM93.7°56.6°
08/30 - 02:30 PM93.9°55.2°
08/30 - 02:15 PM93.8°55.2°
08/30 - 02:00 PM93.5°56.5°
08/30 - 01:45 PM93.0°55.8°
08/30 - 01:30 PM92.6°56.1°
08/30 - 01:15 PM92.4°55.4°
08/30 - 01:00 PM90.9°55.5°
08/30 - 12:45 PM90.5°55.5°
08/30 - 12:30 PM89.7°55.3°
08/30 - 12:15 PM88.9°54.7°
08/30 - 12:00 PM88.1°55.2°
08/30 - 11:45 AM88.0°55.4°
08/30 - 11:30 AM86.8°55.6°
08/30 - 11:15 AM85.7°55.7°
08/30 - 11:00 AM84.4°55.6°
08/30 - 10:45 AM83.2°55.4°
08/30 - 10:30 AM81.5°54.8°
08/30 - 10:15 AM80.0°56.1°
08/30 - 10:00 AM78.0°58.3°
08/30 - 09:45 AM76.1°58.3°
08/30 - 09:30 AM75.1°58.5°
08/30 - 09:15 AM73.9°58.6°
08/30 - 09:00 AM72.9°58.6°
08/30 - 08:45 AM71.9°57.9°
08/30 - 08:30 AM70.3°58.4°
08/30 - 08:15 AM68.1°59.5°
08/30 - 08:00 AM66.3°59.8°
08/30 - 07:45 AM65.2°59.5°
08/30 - 07:30 AM64.6°59.7°
08/30 - 07:15 AM63.7°58.9°
08/30 - 07:00 AM63.5°58.4°
08/30 - 06:45 AM63.1°57.6°
08/30 - 06:30 AM62.5°57.3°
08/30 - 06:15 AM62.2°57.1°
08/30 - 06:00 AM62.0°56.9°
08/30 - 05:45 AM61.8°56.2°
08/30 - 05:30 AM62.0°56.3°
08/30 - 05:15 AM62.1°56.7°
08/30 - 05:00 AM62.7°58.4°
08/30 - 04:45 AM63.3°58.9°
08/30 - 04:30 AM63.6°58.3°
08/30 - 04:15 AM64.4°58.5°
08/30 - 04:00 AM65.1°58.8°
08/30 - 03:45 AM64.9°58.3°
08/30 - 03:30 AM65.1°58.7°
08/30 - 03:15 AM65.6°59.0°
08/30 - 03:00 AM66.4°59.0°
08/30 - 02:45 AM66.7°58.1°
08/30 - 02:30 AM67.0°58.0°
08/30 - 02:15 AM67.7°58.6°
08/30 - 02:00 AM68.7°58.8°
08/30 - 01:45 AM69.3°57.6°
08/30 - 01:30 AM69.6°57.1°
08/30 - 01:15 AM70.4°58.0°
08/30 - 01:00 AM71.7°58.6°
08/30 - 12:45 AM72.9°58.0°
08/30 - 12:30 AM74.6°58.5°
08/30 - 12:15 AM72.8°57.5°
08/30 - 12:00 AM72.2°57.8°
08/29 - 11:45 PM73.6°59.2°
08/29 - 11:30 PM75.2°58.7°
08/29 - 11:15 PM76.9°59.3°
08/29 - 11:00 PM78.8°58.7°
08/29 - 10:45 PM78.0°58.1°
08/29 - 10:30 PM77.1°58.2°
08/29 - 10:15 PM77.4°58.4°
08/29 - 10:00 PM78.1°59.9°
08/29 - 09:45 PM78.7°58.9°
08/29 - 09:30 PM77.7°58.4°
08/29 - 09:15 PM77.3°58.3°
08/29 - 09:00 PM77.8°58.7°
08/29 - 08:45 PM78.2°58.3°
08/29 - 08:30 PM78.2°58.3°
08/29 - 08:15 PM79.2°58.9°
08/29 - 08:00 PM80.0°58.5°
08/29 - 07:45 PM81.0°58.6°
08/29 - 07:30 PM82.3°59.3°
08/29 - 07:15 PM83.8°60.7°
08/29 - 07:00 PM85.5°61.8°
08/29 - 06:45 PM86.9°61.7°
08/29 - 06:30 PM88.6°62.0°
08/29 - 06:15 PM90.2°61.4°
08/29 - 06:00 PM91.3°61.1°
08/29 - 05:45 PM92.0°61.2°
08/29 - 05:30 PM92.3°60.5°
08/29 - 05:15 PM92.7°61.0°
08/29 - 05:00 PM93.1°61.4°
08/29 - 04:45 PM93.5°61.5°
08/29 - 04:30 PM93.7°61.4°
08/29 - 04:15 PM94.1°61.5°
08/29 - 04:00 PM94.2°61.1°
08/29 - 03:45 PM94.2°61.5°
08/29 - 03:30 PM94.6°61.1°
08/29 - 03:15 PM94.5°61.3°
08/29 - 03:00 PM94.3°61.0°
08/29 - 02:45 PM93.7°61.3°
08/29 - 02:30 PM92.6°60.9°
08/29 - 02:15 PM92.8°61.9°
08/29 - 02:00 PM92.4°62.6°
08/29 - 01:45 PM91.5°62.0°
08/29 - 01:30 PM91.3°61.4°